TimeMDT,TemperatureF,Dew PointF,Humidity,Sea Level PressureIn,VisibilityMPH,Wind Direction,Wind SpeedMPH,Gust SpeedMPH,PrecipitationIn,Events,Conditions,WindDirDegrees,DateUTC
12:54 AM,37.9,24.1,57,30.15,10.0,North,5.8,-,N/A,,Clear,350,2012-10-29 06:54:00
1:54 AM,35.1,23.0,61,30.14,10.0,NNW,4.6,-,N/A,,Clear,340,2012-10-29 07:54:00
2:54 AM,37.0,23.0,57,30.14,10.0,North,3.5,-,N/A,,Clear,350,2012-10-29 08:54:00
3:54 AM,41.0,23.0,49,30.12,10.0,NNW,3.5,-,N/A,,Clear,340,2012-10-29 09:54:00
4:54 AM,37.9,23.0,55,30.13,10.0,North,9.2,-,N/A,,Clear,360,2012-10-29 10:54:00
5:54 AM,37.9,24.1,57,30.15,10.0,NNE,8.1,-,N/A,,Clear,20,2012-10-29 11:54:00
6:54 AM,42.1,25.0,51,30.16,10.0,North,9.2,-,N/A,,Clear,10,2012-10-29 12:54:00
7:54 AM,44.1,26.1,49,30.20,10.0,NE,10.4,-,N/A,,Clear,40,2012-10-29 13:54:00
8:54 AM,45.0,28.0,52,30.20,10.0,NNE,8.1,-,N/A,,Clear,20,2012-10-29 14:54:00
9:54 AM,52.0,30.0,43,30.16,10.0,NNE,6.9,-,N/A,,Clear,30,2012-10-29 15:54:00
10:54 AM,59.0,25.0,27,30.14,10.0,NW,4.6,-,N/A,,Clear,320,2012-10-29 16:54:00
11:54 AM,63.0,21.9,21,30.10,10.0,Calm,Calm,-,N/A,,Clear,0,2012-10-29 17:54:00
12:54 PM,63.0,21.0,20,30.08,10.0,East,5.8,-,N/A,,Clear,80,2012-10-29 18:54:00
1:54 PM,66.0,21.0,18,30.06,10.0,South,8.1,-,N/A,,Partly Cloudy,180,2012-10-29 19:54:00
2:54 PM,64.9,19.9,18,30.05,10.0,South,6.9,-,N/A,,Clear,170,2012-10-29 20:54:00
3:54 PM,64.0,19.0,18,30.03,10.0,SW,6.9,-,N/A,,Clear,230,2012-10-29 21:54:00
4:54 PM,62.1,21.9,21,30.06,10.0,SSE,4.6,-,N/A,,Clear,160,2012-10-29 22:54:00
5:54 PM,57.9,21.9,25,30.09,10.0,South,6.9,-,N/A,,Clear,170,2012-10-29 23:54:00
6:54 PM,57.9,21.0,24,30.09,10.0,South,4.6,-,N/A,,Clear,190,2012-10-30 00:54:00
7:54 PM,46.0,23.0,40,30.14,10.0,East,3.5,-,N/A,,Clear,80,2012-10-30 01:54:00
8:54 PM,45.0,23.0,42,30.16,10.0,ENE,9.2,-,N/A,,Clear,60,2012-10-30 02:54:00
9:54 PM,42.1,23.0,47,30.14,10.0,NE,3.5,-,N/A,,Clear,40,2012-10-30 03:54:00
10:54 PM,42.1,23.0,47,30.09,10.0,North,6.9,-,N/A,,Clear,10,2012-10-30 04:54:00
11:54 PM,39.0,24.1,55,30.09,10.0,NNE,10.4,-,N/A,,Clear,20,2012-10-30 05:54:00